This is the latest recevied weather packets stored in our database for station/object N4NVD-13. If no packets are shown the sender has not sent any weather packets the latest 1 day(s).
| Time | Temp. | Humidity | Pressure | Rain* | Wind** | Luminosity | Snow |
|---|---|---|---|---|---|---|---|
| 1836274761 | 22.78° C | 85% | 1017.2 hPa | 0 mm | 0 m/s | 0 W/m² | - |
| 1836274458 | 22.78° C | 85% | 1016.9 hPa | 0 mm | 0 m/s | 0 W/m² | - |
| 1836274313 | 22.78° C | 85% | 1017 hPa | 0 mm | 0 m/s | 0 W/m² | - |
| 1836274156 | 22.78° C | 85% | 1016.9 hPa | 0 mm | 0 m/s | 0 W/m² | - |
| 1778063433 | 23.89° C | 97% | 1008 hPa | 0 mm | 0.89 m/s, 262° | 0 W/m² | - |
| 1778063132 | 23.89° C | 97% | 1008 hPa | 0 mm | 1.34 m/s, 230° | 0 W/m² | - |
| 1778062829 | 23.89° C | 97% | 1007.8 hPa | 0 mm | 0 m/s | 0 W/m² | - |
| 1778062525 | 24.44° C | 97% | 1007.9 hPa | 0 mm | 0 m/s | 0 W/m² | - |
| 1778062223 | 24.44° C | 97% | 1007.8 hPa | 0 mm | 0.89 m/s, 204° | 0 W/m² | - |
| 1778061921 | 24.44° C | 97% | 1007.7 hPa | 0 mm | 0 m/s | 0 W/m² | - |
| 1778061619 | 24.44° C | 97% | 1007.4 hPa | 0 mm | 0 m/s | 0 W/m² | - |
| 1778061317 | 24.44° C | 97% | 1007.8 hPa | 0 mm | 0 m/s | 0 W/m² | - |
| 1778061013 | 24.44° C | 96% | 1007.4 hPa | 0 mm | 0.89 m/s, 221° | 0 W/m² | - |
| 1778060711 | 24.44° C | 97% | 1007.3 hPa | 0 mm | 0.89 m/s, 232° | 0 W/m² | - |
| 1778060409 | 24.44° C | 97% | 1007.2 hPa | 0 mm | 1.79 m/s, 152° | 0 W/m² | - |
| 1778060107 | 24.44° C | 97% | 1007.3 hPa | 0 mm | 0 m/s | 0 W/m² | - |
| 1778059804 | 24.44° C | 97% | 1007.5 hPa | 0 mm | 1.34 m/s, 212° | 0 W/m² | - |
| 1778059502 | 24.44° C | 97% | 1007.3 hPa | 0 mm | 0.89 m/s, 208° | 0 W/m² | - |
| 1778059198 | 24.44° C | 97% | 1007 hPa | 0 mm | 1.79 m/s, 212° | 0 W/m² | - |
| 1778058897 | 24.44° C | 97% | 1007.4 hPa | 0 mm | 1.34 m/s, 216° | 0 W/m² | - |
| 1778058593 | 24.44° C | 97% | 1007.4 hPa | 0 mm | 0.45 m/s, 154° | 0 W/m² | - |
| 1778058291 | 24.44° C | 97% | 1007.2 hPa | 0 mm | 1.79 m/s, 214° | 0 W/m² | - |
| 1778057987 | 24.44° C | 97% | 1007.4 hPa | 0 mm | 1.34 m/s, 212° | 0 W/m² | - |
| 1778057684 | 24.44° C | 97% | 1007.3 hPa | 0 mm | 1.79 m/s, 214° | 0 W/m² | - |
| 1778057381 | 24.44° C | 97% | 1007.1 hPa | 0 mm | 0.89 m/s, 180° | 0 W/m² | - |
* Rain latest hour (hover to see other rain measurements)
** Current wind speed in m/s (hover to see current wind gust speed)